FW3912 Weather Reports


time (UTC)temp
C
wind
direction
speed
KPH
gust
KPH
rain 1hr
cm
rain 24hr
cm
rain mn
cm
humidity
%
barometer
mb
20260507130036 10 0 3.2 6.4 0.00 0.76 0.33 90 1017.6
20260507125016 10 293 3.2 11.3 0.00 0.76 0.33 91 1017.6
20260507124016 10 315 3.2 9.7 0.00 0.76 0.33 91 1017.4
20260507123015 9 338 4.8 6.4 0.00 0.76 0.33 91 1017.2
20260507122035 9 270 3.2 6.4 0.00 0.76 0.33 92 1017.2
20260507121015 9 270 4.8 16.1 0.00 0.76 0.33 92 1017.1
20260507120015 9 270 6.4 19.3 0.00 0.76 0.33 91 1017.1
20260507115015 9 270 4.8 16.1 0.00 0.76 0.33 91 1017.0
20260507114015 9 270 4.8 9.7 0.00 0.76 0.33 91 1017.2
20260507113015 8 270 6.4 14.5 0.00 0.76 0.33 91 1016.9
20260507112035 9 270 6.4 16.1 0.00 0.76 0.33 92 1016.9
20260507111015 9 293 4.8 12.9 0.00 0.76 0.33 93 1016.8
20260507110015 9 270 4.8 11.3 0.00 0.76 0.33 93 1016.7
20260507105015 9 270 4.8 19.3 0.00 0.76 0.33 93 1016.8
20260507104016 9 270 4.8 12.9 0.03 0.76 0.33 94 1016.7
20260507103015 9 293 3.2 14.5 0.03 0.76 0.33 95 1016.7
20260507102015 8 270 4.8 9.7 0.03 0.76 0.33 95 1016.7
20260507093515 8 248 3.2 9.7 0.05 0.74 0.30 95 1016.3
20260507092517 8 293 1.6 4.8 0.05 0.74 0.30 96 1016.3
20260507083557 8 270 3.2 11.3 0.08 0.71 0.25 95 1015.7
20260507082517 8 338 3.2 6.4 0.05 0.69 0.23 95 1015.5
20260507072017 8 270 3.2 9.7 0.05 0.61 0.18 96 1014.8
20260507071016 8 338 4.8 14.5 0.05 0.61 0.18 96 1014.6
20260507062016 8 270 3.2 11.3 0.03 0.58 0.15 96 1014.3
20260507061037 8 270 3.2 11.3 0.03 0.58 0.15 96 1014.0
20260507052016 8 270 4.8 12.9 0.03 0.56 0.13 97 1013.4
20260507051017 8 270 4.8 12.9 0.03 0.56 0.13 97 1013.2
20260506182116 11 270 1.6 4.8 0.00 0.38 0.38 94 1009.9
20260506181017 11 270 3.2 11.3 0.00 0.38 0.38 95 1009.8
20260506172015 11 0 1.6 4.8 0.08 0.38 0.38 94 1009.1
20260506171015 11 338 1.6 4.8 0.28 0.38 0.38 94 1009.0
20260506162015 12 270 3.2 19.3 0.28 0.30 0.30 88 1008.7
20260506161015 13 270 4.8 9.7 0.08 0.10 0.10 87 1009.0
20260506150015 16 270 1.6 3.2 0.00 0.03 0.03 70 1008.4
20260506145025 16 270 1.6 4.8 0.00 0.05 0.03 71 1008.6
20260506140536 16 270 1.6 4.8 0.00 0.15 0.03 69 1008.4
20260506135515 17 0.0 3.2 0.00 0.15 0.03 70 1008.4